Weather Roundup
Issued by NWS

Home | Current Version | Previous Version | Text Only | Print | Product List | Glossary On
Versions: 1 2 3 4 5 6 7 8 9 10 11 12 13 14 15 16 17 18 19 20 21 22 23 24 25 26 27 28 29 30 31 32 33 34 35 36 37 38 39 40 41 42 43 44 45 46 47 48 49 50
000
NZUS93 KARX 281059
HRRWXR

CURRENT HOURLY OBSERVATIONS ACROSS
MUCH OF THE UPPER MISSISSIPPI VALLEY
NATIONAL WEATHER SERVICE LA CROSSE WI
600 AM CDT SAT MAR 28 2015


...SOUTHEAST MINNESOTA...


CITY           SKY/WX    TMP DP  RH WIND       PRES   REMARKS
ROCHESTER      CLEAR     16   8  71 SE5       30.20R WCI   9
ROCHESTER/MAYO FAIR      20  12  71 SE5       30.21R WCI  13
WINONA         PTCLDY    19  16  86 CALM      30.24R
AUSTIN         CLOUDY    21  16  79 CALM      30.19R
ALBERT LEA     CLOUDY    25  18  74 SE5       30.18R WCI  19
DODGE CENTER   PTCLDY    14  10  85 SE6       30.18S WCI   5
PRESTON        PTCLDY    17   8  69 CALM      30.21R
OWATONNA       CLEAR     19  10  68 CALM      30.19R
FARIBAULT      CLEAR     18  10  73 CALM      30.20R
$$

...ELSEWHERE IN MINNESOTA...


CITY           SKY/WX    TMP DP  RH WIND       PRES   REMARKS
MINNEAPOLIS    CLEAR     21   9  59 SE6       30.21R WCI  13
INTNL FALLS    CLEAR     11   6  81 CALM      30.13S
DULUTH         CLEAR     14   8  77 CALM      30.16R
RED WING       CLEAR     18  12  79 CALM      30.22R
REDWOOD FALLS  CLOUDY    29  25  85 SE8       30.15S WCI  21
MANKATO        CLOUDY    25  16  68 SE7       30.18S WCI  17
WORTHINGTON    CLOUDY    28  21  74 S7        30.12S WCI  21
FAIRMONT       CLOUDY    27  18  69 SE7       30.15S WCI  19
$$

...SOUTHWEST WISCONSIN...


CITY           SKY/WX    TMP DP  RH WIND       PRES   REMARKS
LA CROSSE      MOCLDY    21  15  78 SE3       30.24R
PRAIRIE DU CHI CLEAR     16  10  78 E5        30.25R WCI   9
BOSCOBEL       CLEAR     13  10  88 CALM      30.26R
LONE ROCK      NOT AVBL
PLATTEVILLE    PTCLDY    20  15  78 SE6       30.22R WCI  13
FORT MC COY    CLEAR     11   8  88 CALM      30.24R
VIROQUA        FAIR      19  10  68 SE5       30.20R WCI  12
WIS DELLS      NOT AVBL
$$

...ELSEWHERE IN WISCONSIN...


CITY           SKY/WX    TMP DP  RH WIND       PRES   REMARKS
MILWAUKEE      PTCLDY    19  11  70 W5        30.27R WCI  12
MADISON        PTCLDY    16  11  80 CALM      30.25R
GREEN BAY      CLEAR     18  10  71 CALM      30.27R
EAU CLAIRE     NOT AVBL
BLACK RVR FLS  FAIR       8   5  86 CALM      30.22S
MEDFORD        CLEAR     13  10  87 SE5       30.18R WCI   5
WAUSAU         CLEAR     13   9  84 E3        30.20R
WIS RAPIDS     CLEAR     11   5  77 CALM      30.24R
MARSHFIELD     CLEAR     16  10  77 CALM      30.21R
RICE LAKE      FAIR      17  13  85 CALM      30.20S
$$

...NORTHEAST IOWA...


CITY           SKY/WX    TMP DP  RH WIND       PRES   REMARKS
DECORAH        CLOUDY    16  10  79 SE3       30.20R
MASON CITY     MOCLDY    23  16  74 SE6       30.20R WCI  16
CHARLES CITY   CLOUDY    23  14  68 SE6       30.20R WCI  16
OELWEIN        MOCLDY    21  14  73 E7        30.21R WCI  13
$$

...ELSEWHERE IN IOWA...


CITY           SKY/WX    TMP DP  RH WIND       PRES   REMARKS
DES MOINES     CLOUDY    32  12  43 E7        30.18R WCI  26
IOWA CITY      CLEAR     22  14  71 SE3       30.25R
FORT DODGE     CLOUDY    28  18  64 SE7       30.17R WCI  21
$$

...NORTHERN ILLINOIS...


CITY           SKY/WX    TMP DP  RH WIND       PRES   REMARKS
CHICAGO-OHARE  CLEAR     20  13  74 N6        30.25R WCI  12
CHICAGO-MIDWAY CLEAR     23  14  68 N3        30.26R
MOLINE         PTCLDY    17  12  80 E6        30.26R WCI   9
ROCKFORD       CLEAR     16  11  80 NE3       30.28R
PEORIA         CLEAR     23  13  65 CALM      30.27R
$$

NOTE: "FAIR" INDICATES FEW OR NO CLOUDS BELOW 12,000 FEET WITH NO
SIGNIFICANT WEATHER AND/OR OBSTRUCTIONS TO VISIBILITY. WIND
SPEEDS ARE IN MILES-PER-HOUR.



USA.gov is the U.S. government's official web portal to all federal, state and local government web resources and services.